OAL2ES LOWI-LOWW

Flight info

Callsign OAL2ES
Flight time 0h 43m
Altitude 31000
Route RTT DCT NEMAL NEMAL2W
Aircraft HDJT/L-SABDGRWY/H

Departure

Time 2026-04-25 16:26
Airport Innsbruck Airport (LOWI)

Arrival

Time 2026-04-25 17:09
Airport Vienna International Airport (LOWW)
Time Latitude Longitude Altitude Speed Heading
2026-04-25 16:18 47.25754 11.34662 1898 ft 0 kts 58°
2026-04-25 16:23 47.25759 11.34665 1898 ft 1 kts 330°
2026-04-25 16:24 47.25757 11.34569 1898 ft 18 kts 284°
2026-04-25 16:24 47.25815 11.34457 1898 ft 15 kts 261°
2026-04-25 16:24 47.25787 11.34211 1898 ft 33 kts 261°
2026-04-25 16:24 47.25791 11.33919 1898 ft 26 kts 298°
2026-04-25 16:25 47.25898 11.33696 1898 ft 17 kts 306°
2026-04-25 16:25 47.25943 11.33708 1898 ft 13 kts 57°
2026-04-25 16:25 47.25970 11.33920 1895 ft 36 kts 81°
2026-04-25 16:25 47.26055 11.34699 1895 ft 117 kts 80°
2026-04-25 16:26 47.26189 11.35895 2441 ft 116 kts 76°
2026-04-25 16:26 47.26330 11.37095 2898 ft 121 kts 75°
2026-04-25 16:26 47.26494 11.38358 3338 ft 132 kts 76°
2026-04-25 16:26 47.26693 11.39803 3674 ft 158 kts 76°
2026-04-25 16:27 47.26934 11.41498 4142 ft 181 kts 76°
2026-04-25 16:27 47.27201 11.43404 4664 ft 198 kts 77°
2026-04-25 16:27 47.27476 11.45358 4621 ft 197 kts 77°
2026-04-25 16:27 47.27753 11.47393 4784 ft 202 kts 77°
2026-04-25 16:28 47.28034 11.49406 5381 ft 196 kts 77°
2026-04-25 16:28 47.28319 11.51375 6200 ft 201 kts 75°
2026-04-25 16:28 47.28671 11.53407 6924 ft 206 kts 66°
2026-04-25 16:28 47.29272 11.55303 7773 ft 204 kts 62°
2026-04-25 16:29 47.29811 11.57312 8433 ft 217 kts 70°
2026-04-25 16:29 47.30209 11.59465 9279 ft 218 kts 75°
2026-04-25 16:29 47.30571 11.61644 10132 ft 221 kts 74°
2026-04-25 16:29 47.30970 11.63801 10908 ft 223 kts 71°
2026-04-25 16:30 47.31374 11.65220 11444 ft 223 kts 58°
2026-04-25 16:30 47.32311 11.68200 11868 ft 261 kts 68°
2026-04-25 16:30 47.32939 11.70717 12713 ft 261 kts 66°
2026-04-25 16:30 47.33646 11.73191 13583 ft 264 kts 64°
2026-04-25 16:31 47.34397 11.75681 14351 ft 268 kts 64°
2026-04-25 16:31 47.35136 11.78217 15104 ft 271 kts 65°
2026-04-25 16:31 47.35873 11.80800 15804 ft 276 kts 65°
2026-04-25 16:31 47.36624 11.83409 16528 ft 278 kts 65°
2026-04-25 16:32 47.37389 11.86051 17268 ft 283 kts 65°
2026-04-25 16:32 47.38155 11.88704 18032 ft 287 kts 65°
2026-04-25 16:32 47.38938 11.91433 18743 ft 291 kts 65°
2026-04-25 16:32 47.39734 11.94206 19404 ft 296 kts 65°
2026-04-25 16:33 47.40543 11.97018 20086 ft 299 kts 65°
2026-04-25 16:33 47.41359 11.99866 20793 ft 303 kts 65°
2026-04-25 16:33 47.42187 12.02760 21466 ft 308 kts 66°
2026-04-25 16:33 47.43022 12.05678 22227 ft 310 kts 66°
2026-04-25 16:34 47.43867 12.08637 22975 ft 315 kts 66°
2026-04-25 16:34 47.44711 12.11594 23685 ft 319 kts 66°
2026-04-25 16:34 47.45575 12.14628 24292 ft 322 kts 66°
2026-04-25 16:34 47.46446 12.17688 24919 ft 324 kts 66°
2026-04-25 16:35 47.47325 12.20777 25522 ft 328 kts 66°
2026-04-25 16:35 47.48210 12.23895 26111 ft 330 kts 66°
2026-04-25 16:35 47.49102 12.27041 26690 ft 333 kts 66°
2026-04-25 16:35 47.50001 12.30216 27244 ft 336 kts 66°
2026-04-25 16:36 47.50905 12.33411 27796 ft 339 kts 66°
2026-04-25 16:36 47.51201 12.34460 27980 ft 340 kts 66°
2026-04-25 16:36 47.52734 12.39895 28856 ft 344 kts 66°
2026-04-25 16:36 47.53646 12.43133 29348 ft 347 kts 66°
2026-04-25 16:37 47.54577 12.46443 29850 ft 350 kts 66°
2026-04-25 16:37 47.55509 12.49762 30379 ft 349 kts 65°
2026-04-25 16:37 47.56441 12.53086 30842 ft 349 kts 65°
2026-04-25 16:37 47.57381 12.56440 31028 ft 359 kts 65°
2026-04-25 16:38 47.58357 12.59922 31036 ft 373 kts 65°
2026-04-25 16:38 47.59364 12.63528 31042 ft 384 kts 66°
2026-04-25 16:38 47.60398 12.67242 31041 ft 395 kts 66°
2026-04-25 16:39 47.62528 12.74896 31048 ft 413 kts 66°
2026-04-25 16:39 47.64747 12.82901 31052 ft 426 kts 66°
2026-04-25 16:40 47.67009 12.91090 31052 ft 432 kts 66°
2026-04-25 16:40 47.69300 12.99405 31051 ft 438 kts 66°
2026-04-25 16:41 47.71602 13.07797 31055 ft 440 kts 66°
2026-04-25 16:41 47.75057 13.20441 31051 ft 445 kts 66°
2026-04-25 16:42 47.77382 13.28991 31053 ft 448 kts 66°
2026-04-25 16:42 47.79715 13.37603 31050 ft 450 kts 66°
2026-04-25 16:43 47.82045 13.46232 31050 ft 449 kts 66°
2026-04-25 16:43 47.84351 13.54802 31049 ft 449 kts 66°
2026-04-25 16:44 47.86663 13.63432 31044 ft 447 kts 66°
2026-04-25 16:44 47.88970 13.72067 31042 ft 450 kts 66°
2026-04-25 16:45 47.91134 13.80847 31044 ft 453 kts 75°
2026-04-25 16:45 47.91687 13.90210 31040 ft 456 kts 92°
2026-04-25 16:46 47.91478 13.99570 31039 ft 455 kts 90°
2026-04-25 16:46 47.91505 14.05888 31037 ft 455 kts 90°
2026-04-25 16:47 47.91352 14.18508 30449 ft 461 kts 91°
2026-04-25 16:47 47.91323 14.23280 29885 ft 460 kts 90°
2026-04-25 16:47 47.91293 14.28021 29268 ft 455 kts 91°
2026-04-25 16:48 47.91237 14.32708 28649 ft 450 kts 91°
2026-04-25 16:48 47.91177 14.37285 28059 ft 445 kts 91°
2026-04-25 16:48 47.91128 14.41864 27478 ft 440 kts 91°
2026-04-25 16:48 47.91084 14.46394 26905 ft 434 kts 91°
2026-04-25 16:49 47.91029 14.50874 26345 ft 430 kts 91°
2026-04-25 16:49 47.90970 14.55314 25802 ft 427 kts 91°
2026-04-25 16:49 47.90907 14.59730 25265 ft 425 kts 91°
2026-04-25 16:49 47.90809 14.64110 24736 ft 420 kts 92°
2026-04-25 16:50 47.90704 14.68433 24217 ft 416 kts 91°
2026-04-25 16:50 47.90618 14.72729 23711 ft 413 kts 91°
2026-04-25 16:50 47.90537 14.76988 23128 ft 409 kts 91°
2026-04-25 16:50 47.90445 14.81149 22543 ft 405 kts 91°
2026-04-25 16:51 47.90348 14.85325 21959 ft 402 kts 91°
2026-04-25 16:51 47.90256 14.89469 21388 ft 398 kts 91°
2026-04-25 16:51 47.90164 14.93572 20827 ft 394 kts 91°
2026-04-25 16:51 47.90132 14.94946 20639 ft 393 kts 91°
2026-04-25 16:52 47.89975 15.01666 19739 ft 388 kts 91°
2026-04-25 16:52 47.89879 15.05671 19214 ft 386 kts 91°
2026-04-25 16:52 47.89783 15.09646 18689 ft 382 kts 90°
2026-04-25 16:52 47.89688 15.13532 18166 ft 379 kts 90°
2026-04-25 16:53 47.89493 15.21312 16998 ft 372 kts 91°
2026-04-25 16:53 47.89397 15.25141 16427 ft 369 kts 91°
2026-04-25 16:53 47.89297 15.28942 15868 ft 365 kts 91°
2026-04-25 16:54 47.89198 15.32707 15324 ft 362 kts 91°
2026-04-25 16:54 47.89099 15.36438 14787 ft 359 kts 91°
2026-04-25 16:54 47.89001 15.40145 14254 ft 356 kts 91°
2026-04-25 16:54 47.88901 15.43832 13731 ft 355 kts 91°
2026-04-25 16:55 47.88803 15.47456 13149 ft 354 kts 91°
2026-04-25 16:55 47.88698 15.51134 12757 ft 356 kts 91°
2026-04-25 16:55 47.88595 15.54774 12240 ft 348 kts 91°
2026-04-25 16:55 47.88494 15.58351 11737 ft 345 kts 91°
2026-04-25 16:56 47.88392 15.61940 11239 ft 346 kts 91°
2026-04-25 16:56 47.88287 15.65499 10751 ft 341 kts 91°
2026-04-25 16:56 47.88185 15.68994 10275 ft 337 kts 91°
2026-04-25 16:56 47.88083 15.72495 9784 ft 340 kts 91°
2026-04-25 16:57 47.87978 15.75981 9248 ft 334 kts 90°
2026-04-25 16:57 47.87943 15.77097 9077 ft 333 kts 91°
2026-04-25 16:57 47.87767 15.82869 8202 ft 333 kts 90°
2026-04-25 16:57 47.87664 15.86226 8025 ft 323 kts 91°
2026-04-25 16:58 47.87559 15.89571 7698 ft 323 kts 91°
2026-04-25 16:58 47.87454 15.92903 7204 ft 322 kts 91°
2026-04-25 16:58 47.87346 15.96221 6717 ft 320 kts 91°
2026-04-25 16:58 47.87245 15.99546 6232 ft 322 kts 91°
2026-04-25 16:59 47.87138 16.02839 6018 ft 316 kts 91°
2026-04-25 16:59 47.87029 16.06112 6016 ft 317 kts 91°
2026-04-25 16:59 47.86923 16.09398 6012 ft 317 kts 91°
2026-04-25 16:59 47.86816 16.12628 6012 ft 316 kts 92°
2026-04-25 17:00 47.86705 16.15907 6009 ft 317 kts 92°
2026-04-25 17:00 47.86594 16.19191 5915 ft 317 kts 91°
2026-04-25 17:00 47.86486 16.22379 5537 ft 299 kts 92°
2026-04-25 17:00 47.86563 16.25384 5161 ft 283 kts 79°
2026-04-25 17:01 47.86921 16.28199 4768 ft 273 kts 75°
2026-04-25 17:01 47.87315 16.30931 4310 ft 267 kts 75°
2026-04-25 17:01 47.87702 16.33612 3862 ft 263 kts 75°
2026-04-25 17:01 47.88079 16.36252 3417 ft 259 kts 75°
2026-04-25 17:02 47.88443 16.38867 3023 ft 257 kts 75°
2026-04-25 17:02 47.88806 16.41451 3003 ft 254 kts 75°
2026-04-25 17:02 47.89165 16.44012 3007 ft 257 kts 75°
2026-04-25 17:02 47.89286 16.44891 3006 ft 257 kts 75°
2026-04-25 17:03 47.89899 16.49212 2990 ft 258 kts 75°
2026-04-25 17:03 47.90280 16.51824 2994 ft 256 kts 75°
2026-04-25 17:03 47.90667 16.54407 2994 ft 256 kts 75°
2026-04-25 17:03 47.91048 16.56999 2998 ft 256 kts 75°
2026-04-25 17:04 47.91422 16.59588 3001 ft 253 kts 75°
2026-04-25 17:04 47.91863 16.62002 2988 ft 230 kts 58°
2026-04-25 17:04 47.92883 16.63636 3002 ft 210 kts 24°
2026-04-25 17:04 47.94198 16.64497 3000 ft 209 kts 15°
2026-04-25 17:05 47.95586 16.64934 2995 ft 200 kts 349°
2026-04-25 17:05 47.97963 16.63767 2788 ft 165 kts 338°
2026-04-25 17:05 47.99042 16.63280 2576 ft 159 kts 338°
2026-04-25 17:06 48.00090 16.62829 2387 ft 153 kts 339°
2026-04-25 17:06 48.01020 16.62503 2269 ft 124 kts 340°
2026-04-25 17:06 48.01825 16.62269 2051 ft 114 kts 340°
2026-04-25 17:06 48.02571 16.61991 1870 ft 107 kts 336°
2026-04-25 17:07 48.03284 16.61681 1733 ft 109 kts 334°
2026-04-25 17:07 48.03997 16.61303 1606 ft 112 kts 333°
2026-04-25 17:07 48.04758 16.60910 1471 ft 117 kts 335°
2026-04-25 17:07 48.05572 16.60523 1265 ft 128 kts 337°
2026-04-25 17:08 48.06420 16.60143 1092 ft 125 kts 338°
2026-04-25 17:08 48.07247 16.59807 909 ft 122 kts 337°
2026-04-25 17:08 48.08042 16.59478 784 ft 115 kts 338°
2026-04-25 17:08 48.08796 16.59162 663 ft 111 kts 336°
2026-04-25 17:09 48.09501 16.58860 611 ft 99 kts 345°
2026-04-25 17:09 48.09998 16.58653 608 ft 62 kts 342°
2026-04-25 17:09 48.10379 16.58493 604 ft 53 kts 344°
2026-04-25 17:09 48.10715 16.58351 610 ft 47 kts 344°
2026-04-25 17:10 48.10972 16.58200 604 ft 34 kts 319°
2026-04-25 17:10 48.11060 16.58014 611 ft 11 kts 296°
2026-04-25 17:10 48.11063 16.58006 608 ft 0 kts 296°
2026-04-25 17:11 48.11075 16.57969 609 ft 12 kts 296°
2026-04-25 17:11 48.11139 16.57771 606 ft 30 kts 297°
2026-04-25 17:12 48.11252 16.57424 606 ft 41 kts 296°
2026-04-25 17:12 48.11374 16.57050 609 ft 39 kts 297°
2026-04-25 17:12 48.11489 16.56696 608 ft 37 kts 295°
2026-04-25 17:12 48.11598 16.56359 604 ft 35 kts 295°
2026-04-25 17:13 48.11702 16.56041 604 ft 33 kts 294°
2026-04-25 17:13 48.11734 16.55935 604 ft 33 kts 298°
2026-04-25 17:13 48.11899 16.55405 604 ft 39 kts 294°
2026-04-25 17:13 48.12015 16.55047 604 ft 37 kts 295°
2026-04-25 17:14 48.12123 16.54709 604 ft 35 kts 293°
2026-04-25 17:14 48.12227 16.54396 604 ft 21 kts 296°
2026-04-25 17:14 48.12277 16.54206 604 ft 16 kts 252°
2026-04-25 17:14 48.12252 16.54071 604 ft 21 kts 296°
2026-04-25 17:15 48.12343 16.53793 604 ft 37 kts 296°
2026-04-25 17:15 48.12440 16.53634 604 ft 16 kts 18°
2026-04-25 17:15 48.12551 16.53654 604 ft 4 kts 344°
2026-04-25 17:15 48.12577 16.53601 604 ft 8 kts 296°